Printer-friendly version

IAU Minor Planet Center

Minor Planet Center

MPEC 2004-X29 : COMET P/2004 V4 (NEAT)

The following Minor Planet Electronic Circular may be linked-to from your own Web pages, but must not otherwise be redistributed electronically.


Read MPEC 2004-X28 Read MPEC 2004-X30


M.P.E.C. 2004-X29                                Issued 2004 Dec. 8, 23:10 UT

     The Minor Planet Electronic Circulars contain information on unusual
         minor planets and routine data on comets.  They are published
   on behalf of Commission 20 of the International Astronomical Union by the
          Minor Planet Center, Smithsonian Astrophysical Observatory,
                          Cambridge, MA 02138, U.S.A.

                  Supported in part by the Brinson Foundation
             Prepared using the Tamkin Foundation Computer Network

                              MPC@CFA.HARVARD.EDU
          URL http://cfa-www.harvard.edu/iau/mpc.html  ISSN 1523-6714

                            COMET P/2004 V4 (NEAT)

Observations:
    PK04V040  C1990 10 24.42500 05 14 29.09 +08 01 42.8          19.8 N EX029261
    PK04V040  C1990 10 24.47361 05 14 29.99 +08 01 43.8          19.7 N EX029261
    PK04V040  C1990 10 26.44410 05 15 09.46 +08 02 17.0          19.0 N EX029261
    PK04V040  C1991 02 09.12917 04 57 56.38 +22 17 31.7          20.6 N EX029261
    PK04V040  C1991 02 09.17431 04 57 58.88 +22 17 58.0          19.7 N EX029261
    PK04V040  C1997 11 26.64391 04 35 39.91 +06 46 07.3          17.9 N EX029566
    PK04V040  C1997 11 26.65396 04 35 39.42 +06 46 11.7          18.1 N EX029566

Observer details:
261 Palomar-DSS.  Measurer M. Meyer.  1.2-m Schmidt.
566 Haleakala-NEAT/GEODSS.  Measurer M. Meyer.  1.0-m f/2.2 GEODSS telescope
    + CCD.

Orbital elements:
    P/2004 V4 (NEAT)
Epoch 1991 Jan. 24.0 TT = JDT 2448280.5
T 1991 Jan. 13.35791 TT                                 MPC
q   1.9408685            (2000.0)            P               Q
n   0.13969465     Peri.  347.03761     -0.02118892     -0.97765874
a   3.6786025      Node   103.88353     +0.93542523     -0.09321857
e   0.4723897      Incl.   12.44024     +0.35288903     +0.18839766
P   7.06

Epoch 1998 Jan. 27.0 TT = JDT 2450840.5
T 1998 Jan. 22.70229 TT                                 MPC
q   1.9217183            (2000.0)            P               Q
n   0.14051661     Peri.  346.99968     -0.01936376     -0.97761394
a   3.6642431      Node   103.81502     +0.93553486     -0.09164048
e   0.4755484      Incl.   12.45984     +0.35270322     +0.18940170
P   7.01

Epoch 2005 Jan. 30.0 TT = JDT 2453400.5
T 2005 Jan. 31.31282 TT                                 MPC
q   1.9198628            (2000.0)            P               Q
n   0.14058440     Peri.  347.18236     -0.02130058     -0.97754361
a   3.6630650      Node   103.74710     +0.93526807     -0.09358729
e   0.4758862      Incl.   12.46462     +0.35329862     +0.18881183
P   7.01
Residuals in seconds of arc
901024 261  0.5+  0.4-    041107 D74  0.2+  0.6-    041120 130  0.0   0.3-
901024 261  0.1-  0.0     041107 D74  0.5+  0.4-    041121 A32  1.5+  0.0
901026 261  0.3-  0.1+    041108 850  0.3-  0.1-    041121 A32  0.6+  0.0
910209 261  0.5+  0.5+    041108 850  0.4-  0.3-    041121 A32  0.8+  0.3-
910209 261  0.8-  0.5-    041109 850  0.4-  0.3-    041121 A32  0.7+  0.2+
971126 566  0.3+  0.1-    041109 850  0.0   0.5-    041123 A16  0.3-  0.1+
971126 566  0.2-  1.0+    041110 608  0.2-  0.6-    041123 A16  0.3-  0.5+
041009 699  0.7+  0.0     041110 608  0.3+  0.8-    041123 A16  0.5-  0.1+
041009 699  1.5-  1.0-    041110 608  0.6-  0.4-    041123 A16  0.7-  0.1+
041009 699  0.0   0.8+    041110 213  0.7-  1.7+    041124 A16  0.1+  0.2+
041009 699  1.5+  0.6+    041111 699  0.1+  0.1+    041125 A16  0.8+  0.9-
041105 644  0.4+  0.1-    041111 699  1.0-  1.3+    041125 A16  0.5+  1.7-
041105 644  0.3+  0.0     041111 699  0.3+  0.0     041125 A16 (2.1+  1.7-)
041105 644  0.3+  0.1+    041111 699  0.0   0.4+    041125 A16  1.7+  1.5-
041106 J87  0.2-  0.2+    041111 213  0.5+  0.0     041125 A16 (2.2+  3.0+)
041106 J87  0.2-  0.2-    041111 213  0.5-  0.2+    041126 118  0.1+  0.1-
041106 785  0.3+  0.1-    041112 360  0.8-  0.4-    041126 118  0.2-  0.2-
041106 670  0.0   0.5+    041112 360  0.3-  0.2-    041126 118  0.1+  0.1+
041106 785 (4.2-  0.3+)   041112 360  0.6-  0.0     041126 118  0.0   0.0
041106 670 (2.4-  0.8-)   041113 213  0.2-  0.2+    041129 785  1.6+  0.6+
041106 850  0.7-  0.3-    041113 213  0.1-  0.4+    041129 785  0.4+  0.4-
041106 H36  0.5-  0.1+    041113 213  0.3-  0.8+    041130 118  0.1-  0.3-
041106 H36  0.4-  0.2-    041115 246  0.4-  0.4+    041130 118  0.0   0.1-
041106 H36  0.3+  0.4-    041115 246  0.4-  0.5+    041130 118  0.3+  0.4-
041106 850 (4.2-  0.8-)   041115 246  0.4-  0.4+    041130 673  0.3+  0.1-
041106 670  0.2-  0.4-    041115 246  0.5-  0.4+    041130 673  0.0   0.5-
041106 474  0.1+  0.1-    041115 246  0.6-  0.4+    041130 673  0.2+  0.4-
041106 474  0.1+  0.2-    041116 A61  1.2-  0.3+    041130 673  0.2+  0.3-
041106 474  0.2+  0.2-    041116 A61 (1.8-  2.8+)   041130 561  0.1-  0.2-
041106 413  0.1-  0.4-    041116 A61  0.9-  0.5+    041130 561  0.0   0.4-
041106 413  0.1+  0.4-    041117 204  0.0   0.1+    041130 561  0.2-  0.2-
041106 413  0.1-  0.5-    041117 204  0.3+  0.1-    041201 H42 (2.2+  1.2+)
041107 850  1.7-  0.8+    041117 204  0.1+  0.0     041201 H42 (6.1+  1.4-)
041107 850  0.6+  0.1+    041117 213  0.3-  0.2+    041201 H42  0.4-  0.6+
041107 673  0.2+  0.7-    041117 213  0.2-  0.1+    041201 H42  0.3-  1.1+
041107 673  0.3-  0.5-    041117 213  0.1-  0.1-    041201 H42  0.3+  0.6+
041107 850  0.2-  0.5+    041119 608  0.6+  0.7+    041201 H42 (1.6-  3.2+)
041107 673  0.2-  0.2-    041119 608  1.0+  0.4+    041201 349  0.1-  0.4+
041107 673  0.5+  0.1+    041119 608  0.5+  0.9+    041201 349  0.1-  0.4+
041107 644  0.0   0.1+    041119 D74  0.6-  0.1+    041201 349  0.4-  0.4+
041107 644  0.1-  0.0     041119 D74  0.2-  0.0     041202 850  0.0   0.3-
041107 644  0.3+  0.2+    041120 349  0.4-  0.2-    041202 850  1.0+  0.1+
041107 360  0.1+  0.2-    041120 349  0.1-  0.2-    041202 360  0.3+  0.1-
041107 360  0.1-  0.2-    041120 349  0.3-  0.1-    041202 360  0.0   0.2-
041107 360  0.0   0.1-    041120 130  0.1-  0.0     041203 850  0.1+  0.6+
041107 D74  0.5+  0.1-    041120 130  0.3-  0.2-    041203 850  0.1+  0.1+
041107 D74  0.6+  0.4-    041120 130  0.1+  0.0

Brian G. Marsden             (C) Copyright 2004 MPC           M.P.E.C. 2004-X29

Read MPEC 2004-X28 Read MPEC 2004-X30


Our Web policy. Index to the CBAT/MPC/ICQ pages.


Valid HTML 4.01!